Regional Weather Roundup
Issued by NWS

Home | Current Version | Previous Version | Text Only | Print | Product List | Glossary On
Versions: 1 2 3 4 5 6 7 8 9 10 11 12 13 14 15 16 17 18 19 20 21 22 23 24 25 26 27 28 29 30 31 32 33 34 35 36 37 38 39 40 41 42 43 44 45 46 47 48 49 50
000
ASUS43 KDTX 210410
RWRMI
MICHIGAN HOURLY REGIONAL WEATHER ROUNDUP
NATIONAL WEATHER SERVICE DETROIT/PONTIAC MI
1200 AM EDT TUE OCT 21 2014

NOTE: "FAIR" INDICATES FEW OR NO CLOUDS BELOW 12,000 FEET WITH NO
SIGNIFICANT WEATHER AND/OR OBSTRUCTION TO VISIBILITY.

MIZ047>049-052>055-059>063-066>070-074>076-081>083-210500-
SOUTHEAST LOWER MICHIGAN

CITY           SKY/WX    TMP DP  RH WIND       PRES   REMARKS
ADRIAN         MOCLDY    52  47  83 N6        29.89R
ALMA           CLOUDY    48  43  81 NW7       29.92R
ANN ARBOR      LGT RAIN  50  44  80 N8        29.88S
BAD AXE        CLOUDY    47  47 100 NW6       29.87S
DETROIT CITY   CLOUDY    54  48  80 NW7       29.87R
DETROIT        CLOUDY    52  48  86 NW9       29.87S
FLINT          CLOUDY    50  44  80 NW5       29.90S
GROSSE ILE     CLOUDY    54  50  87 NW6       29.85S
HILLSDALE      CLOUDY    51  47  86 N8        29.90R
HOWELL         CLOUDY    47  43  85 NW8       29.89S

CITY           SKY/WX    TMP DP  RH WIND       PRES   REMARKS
JACKSON        CLOUDY    49  46  90 NW5       29.90S
LAMBERTVILLE   PTCLDY    52  48  87 NW5       29.88R
LANSING        CLOUDY    49  43  80 NW7       29.92R
LAPEER         NOT AVBL
MASON          CLOUDY    48  43  82 N5        29.91S
MONROE         MOCLDY    52  50  93 NW5       29.85S FOG
MT. CLEMENS    MOCLDY    50  48  93 NW9       29.84S
PONTIAC        CLOUDY    48  44  86 NW9       29.87S
PORT HOPE        N/A     49  46  90 NW10      29.85R
PORT HURON     CLOUDY    50  48  93 NW7       29.86S
TRI CITIES     CLOUDY    50  43  77 NW10      29.91S
YPSILANTI      CLOUDY    55  48  77 N14       29.88S
$$
MIZ043>046-050>051-056>058-064>065-071>073-077>080-210500-
SOUTHWEST LOWER MICHIGAN

CITY           SKY/WX    TMP DP  RH WIND       PRES   REMARKS
BATTLE CREEK   CLOUDY    49  42  77 NW8       29.93S
BENTON HARBOR  CLOUDY    50  44  80 VRB3      29.97R
BIG RAPIDS     CLOUDY    46  46 100 NW6       29.94S FOG
COLDWATER      CLOUDY    51  44  78 NW9       29.92S
HOLLAND        CLOUDY    50  44  80 VRB7      29.97S
GRAND RAPIDS   MOCLDY    48  43  82 NW10      29.94S
KALAMAZOO      CLOUDY    48  41  76 N10       29.94S
MARSHALL       CLOUDY    48  42  79 NW5       29.91S
MUSKEGON       MOCLDY    48  43  82 N9        29.98R
$$
MIZ016>042-210500-
NORTHERN LOWER MICHIGAN

CITY           SKY/WX    TMP DP  RH WIND       PRES   REMARKS
ALPENA         CLOUDY    47  44  90 N9        29.90R
BEAVER ISLAND  DRIZZLE   46  44  90 N8        29.97R
BELLAIRE       CLOUDY    46  43  90 CALM      29.95R
CADILLAC       DRIZZLE   43  42  97 NW9       29.93S
CHARLEVOIX     RAIN      48  46  93 N15G21    29.97S
FRANKFORT      LGT RAIN  47  42  81 N10G18    29.98R
GAYLORD        LGT RAIN  43  42  97 VRB5      29.92R FOG
GRAYLING       LGT RAIN  46  46  97 NW7       29.93R
HARBOR SPRINGS DRIZZLE   46  44  93 N5        29.94R
HOUGHTON LAKE  CLOUDY    44  42  93 NW9       29.92R
MANISTEE       CLOUDY    46  39  76 N9        29.99R
OSCODA         CLOUDY    46  45  93 NW10      29.87S
PELLSTON       CLOUDY    46  44  93 N9        29.95R
TRAVERSE CITY  CLOUDY    47  42  83 N13       29.95R
$$
MIZ007>008-015-210500-
EASTERN UPPER MICHIGAN

CITY           SKY/WX    TMP DP  RH WIND       PRES   REMARKS
KINROSS        CLOUDY    45  39  81 NE9       29.96R
MACKINAC ISLAN CLOUDY    46  43  88 N14       29.95R
NEWBERRY       CLOUDY    42  40  91 N10       29.98R
S. S. MARIE    CLOUDY    44  36  73 NE8       29.96R
$$
MIZ004>006-011>014-085-210500-
CENTRAL UPPER MICHIGAN

CITY           SKY/WX    TMP DP  RH WIND       PRES   REMARKS
MANISTIQUE     CLOUDY    43  42  97 N8        30.00R
ESCANABA       CLOUDY    45  37  76 N8        30.03R
MENOMINEE      CLOUDY    46  36  66 N9        30.03R
SAWYER-GWINN   LGT RAIN  40  38  92 N13       30.04R
$$
MIZ001>003-009>011-084-210500-
WESTERN UPPER MICHIGAN

CITY           SKY/WX    TMP DP  RH WIND       PRES   REMARKS
IRON MOUNTAIN  CLOUDY    43  36  76 N13       30.04R
HOUGHTON       CLOUDY    41  35  79 NE13      30.09R
COPPER HARBOR    N/A     42  37  82 E20       30.10R
IRONWOOD       CLOUDY    43  39  87 NE5       30.09R
$$

ABBREVIATIONS USED IN REMARKS
   TC - TEMPERATURE IN CELSIUS
  WCI - WIND CHILL INDEX
   HX - HEAT INDEX
  VSB - VISIBILITY




USA.gov is the U.S. government's official web portal to all federal, state and local government web resources and services.